Henderson, KY

2:58 AM CST on December 15, 2019 (GMT -0600)
Henderson City-County

Weather History for KEHR - July, 2019

Change the Weather History Date:

Monday, July 15, 2019

  Actual Average Record
Temperature  
Mean Temperature 74 °F -  
Max Temperature 77 °F 88 °F 110 °F (1936)
Min Temperature 71 °F 68 °F 53 °F (2001)
Cooling Degree Days 9    
Growing Degree Days 24 (Base 50)    
Moisture  
Dew Point 71 °F    
Average Humidity 89    
Maximum Humidity 97    
Minimum Humidity 79    
Precipitation  
Precipitation 0.24 in - - ()
Sea Level Pressure  
Sea Level Pressure 30.07 in    
Wind  
Wind Speed 5 mph (SE)    
Max Wind Speed 10 mph    
Max Gust Speed -    
Visibility 9 miles    
Events Rain    
Averages and records for this station are not official NWS values.
T = Trace of Precipitation, MM = Missing Value Source: NWS Daily Summary

Daily Weather History Graph

Daily Weather History Graph

Search for Another Location

Airport or City:

Astronomy

Jul. 15, 2019 Rise Set
Actual Time 5:40 AM CDT 8:12 PM CDT
Civil Twilight 5:10 AM CDT 8:42 PM CDT
Nautical Twilight 4:32 AM CDT 9:20 PM CDT
Astronomical Twilight 3:50 AM CDT 10:02 PM CDT
Moon 7:29 PM CDT 4:27 AM CDT
Length of Visible Light 15h 32m
Length of Day
14h 31m
Waxing Gibbous, 99% of the Moon is Illuminated
Jul 15
Waxing Gibbous
Jul 16
Full
Jul 24
Last Quarter
Jul 31
New
Aug 7
First Quarter

Hourly Weather History & Observations

Time (CDT) Temp. Dew Point Humidity Pressure Visibility Wind Dir Wind Speed Gust Speed Precip Events Conditions
12:56 AM 73.0 °F 70.0 °F 90% 30.13 in 10.0 mi SSW 5.8 mph - N/A   Clear
1:56 AM 72.0 °F 70.0 °F 93% 30.10 in 10.0 mi Calm Calm - N/A   Clear
2:56 AM 71.1 °F 70.0 °F 96% 30.09 in 10.0 mi South 4.6 mph - N/A   Clear
3:56 AM 71.1 °F 70.0 °F 96% 30.09 in 10.0 mi Calm Calm - N/A   Clear
4:56 AM 72.0 °F 71.1 °F 97% 30.10 in 10.0 mi North - - N/A   Clear
5:56 AM 72.0 °F 71.1 °F 97% 30.11 in 10.0 mi Calm Calm - N/A   Clear
6:56 AM 73.0 °F 71.1 °F 93% 30.11 in 10.0 mi East 3.5 mph - N/A   Clear
7:56 AM 75.0 °F 71.1 °F 87% 30.12 in 10.0 mi East 4.6 mph - N/A   Mostly Cloudy
8:56 AM 77.0 °F 70.0 °F 79% 30.11 in 10.0 mi East 3.5 mph - N/A   Clear
9:56 AM 75.9 °F 71.1 °F 85% 30.13 in 10.0 mi SSE 4.6 mph - 0.00 in Rain Light Rain
10:56 AM 75.0 °F 72.0 °F 90% 30.15 in 9.0 mi SSE 4.6 mph - 0.05 in Rain Light Rain
11:56 AM 73.9 °F 73.0 °F 97% 30.15 in 10.0 mi SE 5.8 mph - 0.05 in Rain Light Rain
12:56 PM 73.9 °F 70.0 °F 87% 30.13 in 7.0 mi East 8.1 mph - 0.09 in Rain Rain
1:56 PM 73.0 °F 70.0 °F 90% 30.11 in 10.0 mi Variable 3.5 mph - 0.05 in Rain Light Rain
2:56 PM 75.9 °F 71.1 °F 85% 30.06 in 10.0 mi ENE 10.4 mph - 0.00 in   Partly Cloudy
3:56 PM 77.0 °F 71.1 °F 82% 30.05 in 10.0 mi Variable 3.5 mph - N/A   Mostly Cloudy
4:56 PM 77.0 °F 73.0 °F 88% 30.03 in 10.0 mi ESE 6.9 mph - 0.00 in   Mostly Cloudy
5:28 PM 75.2 °F 71.6 °F 89% 30.02 in 2.5 mi ESE 5.8 mph - N/A   Haze
5:35 PM 75.2 °F 71.6 °F 89% 30.02 in 10.0 mi ESE 5.8 mph - N/A   Clear
5:56 PM 75.9 °F 70.0 °F 82% 30.01 in 10.0 mi ESE 8.1 mph - N/A   Clear
6:56 PM 75.9 °F 72.0 °F 87% 30.00 in 7.0 mi Variable 5.8 mph - N/A   Clear
7:56 PM 75.0 °F 72.0 °F 90% 30.00 in 10.0 mi ESE 5.8 mph - N/A   Mostly Cloudy
8:56 PM 75.0 °F 72.0 °F 90% 29.99 in 10.0 mi SE 5.8 mph - N/A   Clear
9:56 PM 75.9 °F 72.0 °F 87% 30.00 in 10.0 mi SE 6.9 mph - N/A   Overcast
10:56 PM 75.9 °F 71.1 °F 85% 29.99 in 10.0 mi SSE 9.2 mph - N/A   Scattered Clouds
11:56 PM 75.0 °F 70.0 °F 84% 29.99 in 10.0 mi SSE 8.1 mph - N/A   Clear